Time,TemperatureF,DewpointF,PressureIn,WindDirection,WindDirectionDegrees,WindSpeedMPH,WindSpeedGustMPH,Humidity,HourlyPrecipIn,Conditions,Clouds,dailyrainin,SoftwareType,DateUTC
2013-07-04 00:00:00,78.7,73.1,29.89,SE,124,1.0,1.0,83,0.00,,,0.00,Wunderground v.1.15,2013-07-04 05:00:00,
2013-07-04 00:10:00,78.6,73.0,29.89,ESE,121,1.0,1.0,83,0.00,,,0.00,Wunderground v.1.15,2013-07-04 05:10:00,
2013-07-04 00:15:00,78.5,72.9,29.89,SSE,153,1.0,1.0,83,0.00,,,0.00,Wunderground v.1.15,2013-07-04 05:15:00,
2013-07-04 00:20:00,78.5,72.9,29.89,South,180,2.0,3.0,83,0.00,,,0.00,Wunderground v.1.15,2013-07-04 05:20:00,
2013-07-04 00:25:00,78.5,72.9,29.89,South,188,1.0,3.0,83,0.00,,,0.00,Wunderground v.1.15,2013-07-04 05:25:00,
2013-07-04 00:35:00,78.5,72.9,29.89,SE,129,1.0,1.0,83,0.00,,,0.00,Wunderground v.1.15,2013-07-04 05:35:00,
2013-07-04 00:40:00,78.4,72.8,29.89,South,190,1.0,1.0,83,0.00,,,0.00,Wunderground v.1.15,2013-07-04 05:40:00,
2013-07-04 00:45:00,78.3,72.7,29.89,SSE,167,1.0,1.0,83,0.00,,,0.00,Wunderground v.1.15,2013-07-04 05:45:00,
2013-07-04 00:50:00,78.3,72.7,29.89,SE,131,1.0,1.0,83,0.00,,,0.00,Wunderground v.1.15,2013-07-04 05:50:00,
2013-07-04 00:55:00,78.2,72.6,29.89,South,190,0.0,1.0,83,0.00,,,0.00,Wunderground v.1.15,2013-07-04 05:55:00,
2013-07-04 01:00:00,78.1,72.9,29.89,South,181,1.0,1.0,84,0.00,,,0.00,Wunderground v.1.15,2013-07-04 06:00:00,
2013-07-04 01:10:00,78.0,72.8,29.89,SE,136,1.0,1.0,84,0.00,,,0.00,Wunderground v.1.15,2013-07-04 06:10:00,
2013-07-04 01:15:00,78.1,72.9,29.89,SSW,194,1.0,1.0,84,0.00,,,0.00,Wunderground v.1.15,2013-07-04 06:15:00,
2013-07-04 01:20:00,78.1,72.9,29.89,SE,131,1.0,1.0,84,0.00,,,0.00,Wunderground v.1.15,2013-07-04 06:20:00,
2013-07-04 01:25:00,78.0,72.8,29.89,SSW,194,1.0,1.0,84,0.00,,,0.00,Wunderground v.1.15,2013-07-04 06:25:00,
2013-07-04 01:30:00,78.0,73.1,29.90,SSE,165,0.0,1.0,85,0.00,,,0.00,Wunderground v.1.15,2013-07-04 06:30:00,
2013-07-04 01:40:00,77.8,72.9,29.89,SSE,155,0.0,2.0,85,0.00,,,0.00,Wunderground v.1.15,2013-07-04 06:40:00,
2013-07-04 01:45:00,77.7,73.2,29.89,SSE,164,0.0,2.0,86,0.00,,,0.00,Wunderground v.1.15,2013-07-04 06:45:00,
2013-07-04 01:50:00,77.7,73.2,29.90,South,172,0.0,0.0,86,0.00,,,0.00,Wunderground v.1.15,2013-07-04 06:50:00,
2013-07-04 01:55:00,77.6,73.1,29.89,SSE,159,0.0,0.0,86,0.00,,,0.00,Wunderground v.1.15,2013-07-04 06:55:00,
2013-07-04 02:00:00,77.5,73.0,29.90,SSW,204,0.0,1.0,86,0.00,,,0.00,Wunderground v.1.15,2013-07-04 07:00:00,
2013-07-04 02:10:00,77.3,73.1,29.90,SSW,197,0.0,0.0,87,0.00,,,0.00,Wunderground v.1.15,2013-07-04 07:10:00,
2013-07-04 02:15:00,77.3,73.1,29.89,SW,215,0.0,0.0,87,0.00,,,0.00,Wunderground v.1.15,2013-07-04 07:15:00,
2013-07-04 02:20:00,77.3,73.1,29.89,SSW,205,0.0,0.0,87,0.00,,,0.00,Wunderground v.1.15,2013-07-04 07:20:00,
2013-07-04 02:25:00,77.2,73.0,29.89,SSE,168,0.0,0.0,87,0.00,,,0.00,Wunderground v.1.15,2013-07-04 07:25:00,
2013-07-04 02:30:00,77.2,73.0,29.89,SSE,163,0.0,0.0,87,0.00,,,0.00,Wunderground v.1.15,2013-07-04 07:30:00,
2013-07-04 02:35:00,77.1,72.9,29.89,SE,142,0.0,0.0,87,0.00,,,0.00,Wunderground v.1.15,2013-07-04 07:35:00,
2013-07-04 02:45:00,77.0,72.8,29.89,SW,226,0.0,0.0,87,0.00,,,0.00,Wunderground v.1.15,2013-07-04 07:45:00,
2013-07-04 02:50:00,76.9,72.7,29.88,SSW,205,0.0,0.0,87,0.00,,,0.00,Wunderground v.1.15,2013-07-04 07:50:00,
2013-07-04 02:55:00,76.8,72.6,29.88,SW,214,0.0,0.0,87,0.00,,,0.00,Wunderground v.1.15,2013-07-04 07:55:00,
2013-07-04 03:00:00,76.8,73.0,29.88,SW,214,0.0,0.0,88,0.00,,,0.00,Wunderground v.1.15,2013-07-04 08:00:00,
2013-07-04 03:10:00,76.8,73.0,29.88,South,186,0.0,0.0,88,0.00,,,0.00,Wunderground v.1.15,2013-07-04 08:10:00,
2013-07-04 03:20:00,76.6,72.8,29.88,SSW,205,0.0,0.0,88,0.00,,,0.00,Wunderground v.1.15,2013-07-04 08:20:00,
2013-07-04 03:25:00,76.6,72.8,29.88,SSE,156,0.0,0.0,88,0.00,,,0.00,Wunderground v.1.15,2013-07-04 08:25:00,
2013-07-04 03:30:00,76.4,72.6,29.88,SSE,166,0.0,0.0,88,0.00,,,0.00,Wunderground v.1.15,2013-07-04 08:30:00,
2013-07-04 03:35:00,76.3,72.8,29.87,SSE,166,0.0,0.0,89,0.00,,,0.00,Wunderground v.1.15,2013-07-04 08:35:00,
2013-07-04 03:40:00,76.3,72.8,29.87,SW,214,0.0,0.0,89,0.00,,,0.00,Wunderground v.1.15,2013-07-04 08:40:00,
2013-07-04 03:45:00,76.1,72.6,29.87,SW,214,0.0,0.0,89,0.00,,,0.00,Wunderground v.1.15,2013-07-04 08:45:00,
2013-07-04 03:50:00,76.0,72.5,29.87,South,183,0.0,0.0,89,0.00,,,0.00,Wunderground v.1.15,2013-07-04 08:50:00,
2013-07-04 03:55:00,75.9,72.4,29.87,South,183,0.0,0.0,89,0.00,,,0.00,Wunderground v.1.15,2013-07-04 08:55:00,
2013-07-04 04:00:00,75.9,72.8,29.87,SSE,158,0.0,0.0,90,0.00,,,0.00,Wunderground v.1.15,2013-07-04 09:00:00,
2013-07-04 04:10:00,76.0,72.9,29.87,SE,131,1.0,1.0,90,0.00,,,0.00,Wunderground v.1.15,2013-07-04 09:10:00,
2013-07-04 04:15:00,75.9,72.4,29.87,SSE,163,0.0,1.0,89,0.00,,,0.00,Wunderground v.1.15,2013-07-04 09:15:00,
2013-07-04 04:25:00,75.8,72.7,29.87,SE,141,0.0,0.0,90,0.00,,,0.00,Wunderground v.1.15,2013-07-04 09:25:00,
2013-07-04 04:30:00,75.8,72.7,29.86,SSE,148,0.0,0.0,90,0.00,,,0.00,Wunderground v.1.15,2013-07-04 09:30:00,
2013-07-04 04:35:00,75.8,72.7,29.86,SSE,164,1.0,1.0,90,0.00,,,0.00,Wunderground v.1.15,2013-07-04 09:35:00,
2013-07-04 04:40:00,75.8,72.7,29.86,South,180,0.0,0.0,90,0.00,,,0.00,Wunderground v.1.15,2013-07-04 09:40:00,
2013-07-04 04:45:00,75.8,72.3,29.86,SE,143,0.0,0.0,89,0.00,,,0.00,Wunderground v.1.15,2013-07-04 09:45:00,
2013-07-04 04:55:00,75.7,72.2,29.86,South,177,0.0,0.0,89,0.00,,,0.00,Wunderground v.1.15,2013-07-04 09:55:00,
2013-07-04 05:00:00,75.5,72.4,29.86,SSE,166,0.0,0.0,90,0.00,,,0.00,Wunderground v.1.15,2013-07-04 10:00:00,
2013-07-04 05:10:00,75.4,72.3,29.87,SSE,151,0.0,0.0,90,0.00,,,0.00,Wunderground v.1.15,2013-07-04 10:10:00,
2013-07-04 05:15:00,75.3,72.2,29.87,SSE,150,0.0,0.0,90,0.00,,,0.00,Wunderground v.1.15,2013-07-04 10:15:00,
2013-07-04 05:20:00,75.3,72.2,29.87,SSE,152,0.0,0.0,90,0.00,,,0.00,Wunderground v.1.15,2013-07-04 10:20:00,
2013-07-04 05:30:00,75.2,72.1,29.86,SSE,150,0.0,0.0,90,0.00,,,0.00,Wunderground v.1.15,2013-07-04 10:30:00,
2013-07-04 05:35:00,75.1,72.0,29.86,SSE,150,0.0,0.0,90,0.00,,,0.00,Wunderground v.1.15,2013-07-04 10:35:00,
2013-07-04 05:40:00,75.0,71.9,29.87,SSE,152,0.0,0.0,90,0.00,,,0.00,Wunderground v.1.15,2013-07-04 10:40:00,
2013-07-04 05:45:00,74.8,71.7,29.87,SSE,151,0.0,0.0,90,0.00,,,0.00,Wunderground v.1.15,2013-07-04 10:45:00,
2013-07-04 05:50:00,74.6,71.5,29.87,SSE,151,0.0,0.0,90,0.00,,,0.00,Wunderground v.1.15,2013-07-04 10:50:00,
2013-07-04 06:00:00,74.1,71.3,29.87,SSE,151,0.0,0.0,91,0.00,,,0.00,Wunderground v.1.15,2013-07-04 11:00:00,
2013-07-04 06:10:00,73.9,71.4,29.88,SSE,150,0.0,0.0,92,0.00,,,0.00,Wunderground v.1.15,2013-07-04 11:10:00,
2013-07-04 06:15:00,73.9,71.4,29.87,SSE,151,0.0,0.0,92,0.00,,,0.00,Wunderground v.1.15,2013-07-04 11:15:00,
2013-07-04 06:20:00,73.8,71.3,29.87,SSE,150,0.0,0.0,92,0.00,,,0.00,Wunderground v.1.15,2013-07-04 11:20:00,
2013-07-04 06:25:00,73.7,71.2,29.88,SSE,151,0.0,0.0,92,0.00,,,0.00,Wunderground v.1.15,2013-07-04 11:25:00,
2013-07-04 06:35:00,73.3,70.8,29.88,SSE,150,0.0,0.0,92,0.00,,,0.00,Wunderground v.1.15,2013-07-04 11:35:00,
2013-07-04 06:40:00,73.2,70.7,29.88,SSE,150,0.0,0.0,92,0.00,,,0.00,Wunderground v.1.15,2013-07-04 11:40:00,
2013-07-04 06:45:00,73.2,70.7,29.88,SSE,150,0.0,0.0,92,0.00,,,0.00,Wunderground v.1.15,2013-07-04 11:45:00,
2013-07-04 06:50:00,73.0,70.5,29.88,SSE,150,0.0,0.0,92,0.00,,,0.00,Wunderground v.1.15,2013-07-04 11:50:00,
2013-07-04 06:55:00,73.1,71.0,29.88,SSE,151,0.0,0.0,93,0.00,,,0.00,Wunderground v.1.15,2013-07-04 11:55:00,
2013-07-04 07:00:00,73.2,71.1,29.88,SSE,150,0.0,0.0,93,0.00,,,0.00,Wunderground v.1.15,2013-07-04 12:00:00,
2013-07-04 07:10:00,73.5,71.4,29.88,SSE,150,0.0,0.0,93,0.00,,,0.00,Wunderground v.1.15,2013-07-04 12:10:00,
2013-07-04 07:15:00,73.8,71.6,29.87,SSE,150,0.0,0.0,93,0.00,,,0.00,Wunderground v.1.15,2013-07-04 12:15:00,
2013-07-04 07:20:00,73.9,71.7,29.87,SSE,153,0.0,0.0,93,0.00,,,0.00,Wunderground v.1.15,2013-07-04 12:20:00,
2013-07-04 07:25:00,74.2,71.7,29.88,WNW,299,0.0,0.0,92,0.00,,,0.00,Wunderground v.1.15,2013-07-04 12:25:00,
2013-07-04 07:30:00,74.6,72.1,29.88,WNW,298,0.0,0.0,92,0.00,,,0.00,Wunderground v.1.15,2013-07-04 12:30:00,
2013-07-04 07:40:00,75.9,73.1,29.88,WNW,298,0.0,0.0,91,0.00,,,0.00,Wunderground v.1.15,2013-07-04 12:40:00,
2013-07-04 07:45:00,76.0,72.9,29.88,WNW,297,0.0,0.0,90,0.00,,,0.00,Wunderground v.1.15,2013-07-04 12:45:00,
2013-07-04 07:50:00,76.3,73.5,29.88,WNW,297,0.0,0.0,91,0.00,,,0.00,Wunderground v.1.15,2013-07-04 12:50:00,
2013-07-04 07:55:00,76.7,73.2,29.89,WNW,297,0.0,0.0,89,0.00,,,0.00,Wunderground v.1.15,2013-07-04 12:55:00,
2013-07-04 08:00:00,77.0,73.5,29.89,WNW,297,0.0,0.0,89,0.00,,,0.00,Wunderground v.1.15,2013-07-04 13:00:00,
2013-07-04 08:10:00,77.7,73.9,29.89,WNW,298,0.0,0.0,88,0.00,,,0.00,Wunderground v.1.15,2013-07-04 13:10:00,
2013-07-04 08:15:00,78.2,73.7,29.89,West,266,0.0,0.0,86,0.00,,,0.00,Wunderground v.1.15,2013-07-04 13:15:00,
2013-07-04 08:20:00,79.0,74.1,29.90,West,266,0.0,0.0,85,0.00,,,0.00,Wunderground v.1.15,2013-07-04 13:20:00,
2013-07-04 08:25:00,79.4,74.1,29.90,West,271,0.0,0.0,84,0.00,,,0.00,Wunderground v.1.15,2013-07-04 13:25:00,
2013-07-04 08:30:00,79.7,74.1,29.90,SW,226,0.0,2.0,83,0.00,,,0.00,Wunderground v.1.15,2013-07-04 13:30:00,
2013-07-04 08:35:00,80.5,74.9,29.90,SE,139,0.0,2.0,83,0.00,,,0.00,Wunderground v.1.15,2013-07-04 13:35:00,
2013-07-04 08:45:00,81.6,74.1,29.91,SE,143,1.0,1.0,78,0.00,,,0.00,Wunderground v.1.15,2013-07-04 13:45:00,
2013-07-04 08:50:00,82.2,74.7,29.91,SE,141,1.0,1.0,78,0.00,,,0.00,Wunderground v.1.15,2013-07-04 13:50:00,
2013-07-04 08:55:00,83.1,75.1,29.91,SE,134,0.0,1.0,77,0.00,,,0.00,Wunderground v.1.15,2013-07-04 13:55:00,
2013-07-04 09:00:00,84.6,75.8,29.91,SSE,150,0.0,1.0,75,0.00,,,0.00,Wunderground v.1.15,2013-07-04 14:00:00,
2013-07-04 09:10:00,84.7,75.1,29.91,SSW,193,1.0,2.0,73,0.00,,,0.00,Wunderground v.1.15,2013-07-04 14:10:00,
2013-07-04 09:15:00,84.4,74.8,29.91,South,188,1.0,3.0,73,0.00,,,0.00,Wunderground v.1.15,2013-07-04 14:15:00,
2013-07-04 09:20:00,84.1,74.5,29.91,SSE,165,1.0,1.0,73,0.00,,,0.00,Wunderground v.1.15,2013-07-04 14:20:00,
2013-07-04 09:25:00,84.0,74.4,29.90,SE,124,1.0,1.0,73,0.00,,,0.00,Wunderground v.1.15,2013-07-04 14:25:00,
2013-07-04 09:30:00,83.8,74.6,29.91,East,89,1.0,1.0,74,0.00,,,0.00,Wunderground v.1.15,2013-07-04 14:30:00,
2013-07-04 09:35:00,83.6,74.8,29.91,ENE,67,1.0,1.0,75,0.00,,,0.00,Wunderground v.1.15,2013-07-04 14:35:00,
2013-07-04 09:40:00,83.3,75.3,29.91,East,85,1.0,4.0,77,0.00,,,0.00,Wunderground v.1.15,2013-07-04 14:40:00,
2013-07-04 09:50:00,83.1,74.7,29.91,ENE,74,2.0,5.0,76,0.00,,,0.00,Wunderground v.1.15,2013-07-04 14:50:00,
2013-07-04 09:55:00,82.7,74.8,29.91,ENE,59,2.0,5.0,77,0.00,,,0.00,Wunderground v.1.15,2013-07-04 14:55:00,
2013-07-04 10:00:00,82.7,75.1,29.91,ENE,65,2.0,2.0,78,0.00,,,0.00,Wunderground v.1.15,2013-07-04 15:00:00,
2013-07-04 10:10:00,82.9,74.9,29.91,NE,46,2.0,2.0,77,0.00,,,0.00,Wunderground v.1.15,2013-07-04 15:10:00,
2013-07-04 10:15:00,82.8,74.5,29.91,ESE,105,2.0,2.0,76,0.00,,,0.00,Wunderground v.1.15,2013-07-04 15:15:00,
2013-07-04 10:20:00,83.1,75.1,29.91,East,98,3.0,3.0,77,0.00,,,0.00,Wunderground v.1.15,2013-07-04 15:20:00,
2013-07-04 10:25:00,83.5,75.5,29.91,NNE,25,2.0,3.0,77,0.00,,,0.00,Wunderground v.1.15,2013-07-04 15:25:00,
2013-07-04 10:34:00,83.4,75.4,29.91,ENE,63,2.0,3.0,77,0.00,,,0.00,Wunderground v.1.15,2013-07-04 15:34:00,
2013-07-04 10:39:00,84.1,75.7,29.91,ESE,121,2.0,2.0,76,0.00,,,0.00,Wunderground v.1.15,2013-07-04 15:39:00,
2013-07-04 10:44:00,84.0,75.6,29.91,NE,56,2.0,3.0,76,0.00,,,0.00,Wunderground v.1.15,2013-07-04 15:44:00,
2013-07-04 10:50:00,84.2,75.8,29.91,ENE,71,2.0,3.0,76,0.00,,,0.00,Wunderground v.1.15,2013-07-04 15:50:00,
2013-07-04 10:55:00,83.8,75.4,29.91,East,98,3.0,3.0,76,0.00,,,0.00,Wunderground v.1.15,2013-07-04 15:55:00,
2013-07-04 11:00:00,83.7,75.7,29.91,NE,47,3.0,3.0,77,0.00,,,0.00,Wunderground v.1.15,2013-07-04 16:00:00,
2013-07-04 11:10:00,84.6,76.2,29.91,NNE,30,3.0,4.0,76,0.00,,,0.00,Wunderground v.1.15,2013-07-04 16:10:00,
2013-07-04 11:15:00,85.0,76.2,29.91,East,98,3.0,6.0,75,0.00,,,0.00,Wunderground v.1.15,2013-07-04 16:15:00,
2013-07-04 11:20:00,84.2,75.4,29.91,ENE,57,4.0,4.0,75,0.00,,,0.00,Wunderground v.1.15,2013-07-04 16:20:00,
2013-07-04 11:30:00,84.8,75.6,29.91,ENE,57,4.0,4.0,74,0.00,,,0.00,Wunderground v.1.15,2013-07-04 16:30:00,
2013-07-04 11:35:00,84.9,75.7,29.91,ENE,78,4.0,6.0,74,0.00,,,0.00,Wunderground v.1.15,2013-07-04 16:35:00,
2013-07-04 11:40:00,84.3,75.1,29.91,ESE,102,4.0,6.0,74,0.00,,,0.00,Wunderground v.1.15,2013-07-04 16:40:00,
2013-07-04 11:45:00,84.6,75.4,29.91,ESE,102,5.0,7.0,74,0.00,,,0.00,Wunderground v.1.15,2013-07-04 16:45:00,
2013-07-04 11:50:00,84.7,75.5,29.91,ENE,72,5.0,5.0,74,0.00,,,0.00,Wunderground v.1.15,2013-07-04 16:50:00,
2013-07-04 12:00:00,85.7,76.0,29.91,ENE,68,4.0,6.0,73,0.00,,,0.00,Wunderground v.1.15,2013-07-04 17:00:00,
2013-07-04 12:10:00,85.4,75.8,29.91,East,82,5.0,6.0,73,0.00,,,0.00,Wunderground v.1.15,2013-07-04 17:10:00,
2013-07-04 12:15:00,85.0,75.4,29.91,NE,51,5.0,6.0,73,0.00,,,0.00,Wunderground v.1.15,2013-07-04 17:15:00,
2013-07-04 12:20:00,85.2,75.1,29.91,East,79,5.0,10.0,72,0.00,,,0.00,Wunderground v.1.15,2013-07-04 17:20:00,
2013-07-04 12:25:00,85.2,75.1,29.91,East,87,6.0,11.0,72,0.00,,,0.00,Wunderground v.1.15,2013-07-04 17:25:00,
2013-07-04 12:35:00,84.3,74.7,29.90,East,91,8.0,13.0,73,0.00,,,0.00,Wunderground v.1.15,2013-07-04 17:35:00,
2013-07-04 12:40:00,84.6,75.0,29.90,East,81,8.0,8.0,73,0.00,,,0.00,Wunderground v.1.15,2013-07-04 17:40:00,
2013-07-04 12:45:00,85.6,75.5,29.90,ENE,72,6.0,8.0,72,0.00,,,0.00,Wunderground v.1.15,2013-07-04 17:45:00,
2013-07-04 12:50:00,85.7,74.8,29.90,East,100,5.0,6.0,70,0.00,,,0.00,Wunderground v.1.15,2013-07-04 17:50:00,
2013-07-04 12:55:00,86.0,75.5,29.89,East,96,5.0,6.0,71,0.00,,,0.00,Wunderground v.1.15,2013-07-04 17:55:00,
2013-07-04 13:00:00,86.0,75.5,29.89,East,95,6.0,6.0,71,0.00,,,0.00,Wunderground v.1.15,2013-07-04 18:00:00,
2013-07-04 13:10:00,86.0,74.6,29.89,East,98,6.0,6.0,69,0.00,,,0.00,Wunderground v.1.15,2013-07-04 18:10:00,
2013-07-04 13:15:00,85.9,74.1,29.89,East,88,6.0,9.0,68,0.00,,,0.00,Wunderground v.1.15,2013-07-04 18:15:00,
2013-07-04 13:20:00,85.5,74.6,29.89,ENE,78,6.0,6.0,70,0.00,,,0.00,Wunderground v.1.15,2013-07-04 18:20:00,
2013-07-04 13:25:00,85.8,73.6,29.89,East,100,6.0,6.0,67,0.00,,,0.00,Wunderground v.1.15,2013-07-04 18:25:00,
2013-07-04 13:30:00,86.2,74.4,29.89,East,91,5.0,10.0,68,0.00,,,0.00,Wunderground v.1.15,2013-07-04 18:30:00,
2013-07-04 13:40:00,85.7,73.5,29.89,East,94,6.0,6.0,67,0.00,,,0.00,Wunderground v.1.15,2013-07-04 18:40:00,
2013-07-04 13:45:00,86.1,74.7,29.89,SSW,204,6.0,6.0,69,0.00,,,0.00,Wunderground v.1.15,2013-07-04 18:45:00,
2013-07-04 13:50:00,86.4,74.6,29.89,ENE,71,5.0,5.0,68,0.00,,,0.00,Wunderground v.1.15,2013-07-04 18:50:00,
2013-07-04 13:55:00,86.1,74.7,29.89,ENE,74,5.0,5.0,69,0.00,,,0.00,Wunderground v.1.15,2013-07-04 18:55:00,
2013-07-04 14:00:00,85.7,74.8,29.88,East,98,6.0,8.0,70,0.00,,,0.00,Wunderground v.1.15,2013-07-04 19:00:00,
2013-07-04 14:10:00,86.6,74.8,29.88,ENE,75,5.0,5.0,68,0.00,,,0.00,Wunderground v.1.15,2013-07-04 19:10:00,
2013-07-04 14:15:00,86.6,74.8,29.88,ESE,122,4.0,6.0,68,0.00,,,0.00,Wunderground v.1.15,2013-07-04 19:15:00,
2013-07-04 14:20:00,86.6,74.8,29.88,East,101,5.0,7.0,68,0.00,,,0.00,Wunderground v.1.15,2013-07-04 19:20:00,
2013-07-04 14:25:00,86.8,74.5,29.88,East,100,5.0,7.0,67,0.00,,,0.00,Wunderground v.1.15,2013-07-04 19:25:00,
2013-07-04 14:30:00,86.6,74.8,29.88,East,98,5.0,5.0,68,0.00,,,0.00,Wunderground v.1.15,2013-07-04 19:30:00,
2013-07-04 14:35:00,87.2,74.5,29.87,ENE,61,5.0,5.0,66,0.00,,,0.00,Wunderground v.1.15,2013-07-04 19:35:00,
2013-07-04 14:45:00,86.6,74.8,29.87,ENE,71,5.0,6.0,68,0.00,,,0.00,Wunderground v.1.15,2013-07-04 19:45:00,
2013-07-04 14:50:00,86.8,74.5,29.87,SE,127,6.0,7.0,67,0.00,,,0.00,Wunderground v.1.15,2013-07-04 19:50:00,
2013-07-04 14:55:00,86.8,75.0,29.87,ESE,103,5.0,8.0,68,0.00,,,0.00,Wunderground v.1.15,2013-07-04 19:55:00,
2013-07-04 15:00:00,87.0,74.7,29.87,SE,127,5.0,9.0,67,0.00,,,0.00,Wunderground v.1.15,2013-07-04 20:00:00,
2013-07-04 15:10:00,86.7,75.7,29.86,East,97,6.0,6.0,70,0.00,,,0.00,Wunderground v.1.15,2013-07-04 20:10:00,
2013-07-04 15:15:00,86.2,75.3,29.86,East,88,6.0,6.0,70,0.00,,,0.00,Wunderground v.1.15,2013-07-04 20:15:00,
2013-07-04 15:20:00,86.6,75.2,29.86,East,91,6.0,7.0,69,0.00,,,0.00,Wunderground v.1.15,2013-07-04 20:20:00,
2013-07-04 15:25:00,86.8,75.0,29.86,East,86,5.0,9.0,68,0.00,,,0.00,Wunderground v.1.15,2013-07-04 20:25:00,
2013-07-04 15:30:00,86.4,75.5,29.86,ESE,109,6.0,9.0,70,0.00,,,0.00,Wunderground v.1.15,2013-07-04 20:30:00,
2013-07-04 15:35:00,86.5,74.7,29.86,East,101,7.0,9.0,68,0.00,,,0.00,Wunderground v.1.15,2013-07-04 20:35:00,
2013-07-04 15:40:00,86.3,74.9,29.86,NE,54,6.0,8.0,69,0.00,,,0.00,Wunderground v.1.15,2013-07-04 20:40:00,
2013-07-04 15:50:00,86.8,75.0,29.85,East,87,6.0,9.0,68,0.00,,,0.00,Wunderground v.1.15,2013-07-04 20:50:00,
2013-07-04 15:55:00,86.5,74.7,29.85,ESE,105,6.0,9.0,68,0.00,,,0.00,Wunderground v.1.15,2013-07-04 20:55:00,
2013-07-04 16:00:00,86.4,74.1,29.85,SE,128,7.0,7.0,67,0.00,,,0.00,Wunderground v.1.15,2013-07-04 21:00:00,
2013-07-04 16:10:00,86.3,74.9,29.85,NE,50,7.0,7.0,69,0.00,,,0.00,Wunderground v.1.15,2013-07-04 21:10:00,
2013-07-04 16:20:00,86.6,74.8,29.84,ESE,110,7.0,9.0,68,0.00,,,0.00,Wunderground v.1.15,2013-07-04 21:20:00,
2013-07-04 16:25:00,86.5,74.7,29.84,East,91,7.0,9.0,68,0.00,,,0.00,Wunderground v.1.15,2013-07-04 21:25:00,
2013-07-04 16:30:00,86.6,74.3,29.84,ESE,104,7.0,8.0,67,0.00,,,0.00,Wunderground v.1.15,2013-07-04 21:30:00,
2013-07-04 16:35:00,86.8,75.0,29.84,ENE,74,6.0,8.0,68,0.00,,,0.00,Wunderground v.1.15,2013-07-04 21:35:00,
2013-07-04 16:40:00,86.8,75.0,29.84,East,87,6.0,6.0,68,0.00,,,0.00,Wunderground v.1.15,2013-07-04 21:40:00,
2013-07-04 16:45:00,86.4,75.0,29.84,ESE,106,7.0,7.0,69,0.00,,,0.00,Wunderground v.1.15,2013-07-04 21:45:00,
2013-07-04 16:55:00,86.4,74.1,29.84,East,97,6.0,10.0,67,0.00,,,0.00,Wunderground v.1.15,2013-07-04 21:55:00,
2013-07-04 17:00:00,86.2,74.8,29.84,ENE,74,7.0,7.0,69,0.00,,,0.00,Wunderground v.1.15,2013-07-04 22:00:00,
2013-07-04 17:09:00,86.2,74.0,29.84,East,93,6.0,8.0,67,0.00,,,0.00,Wunderground v.1.15,2013-07-04 22:09:00,
2013-07-04 17:14:00,86.6,74.8,29.84,ENE,65,6.0,8.0,68,0.00,,,0.00,Wunderground v.1.15,2013-07-04 22:14:00,
2013-07-04 17:19:00,86.7,74.9,29.84,SE,125,5.0,5.0,68,0.00,,,0.00,Wunderground v.1.15,2013-07-04 22:19:00,
2013-07-04 17:25:00,86.7,74.9,29.84,SE,126,5.0,5.0,68,0.00,,,0.00,Wunderground v.1.15,2013-07-04 22:25:00,
2013-07-04 17:30:00,86.3,74.5,29.83,ENE,72,5.0,7.0,68,0.00,,,0.00,Wunderground v.1.15,2013-07-04 22:30:00,
2013-07-04 17:35:00,86.0,74.2,29.83,ESE,122,6.0,7.0,68,0.00,,,0.00,Wunderground v.1.15,2013-07-04 22:35:00,
2013-07-04 17:40:00,86.3,74.9,29.83,East,96,5.0,8.0,69,0.00,,,0.00,Wunderground v.1.15,2013-07-04 22:40:00,
2013-07-04 17:45:00,85.8,74.0,29.83,SE,144,6.0,8.0,68,0.00,,,0.00,Wunderground v.1.15,2013-07-04 22:45:00,
2013-07-04 17:50:00,85.9,73.7,29.83,ENE,70,7.0,7.0,67,0.00,,,0.00,Wunderground v.1.15,2013-07-04 22:50:00,
2013-07-04 18:00:00,85.6,74.3,29.83,ESE,122,7.0,8.0,69,0.00,,,0.00,Wunderground v.1.15,2013-07-04 23:00:00,
2013-07-04 18:10:00,85.5,73.7,29.83,NE,41,7.0,7.0,68,0.00,,,0.00,Wunderground v.1.15,2013-07-04 23:10:00,
2013-07-04 18:15:00,85.5,73.3,29.83,ESE,102,6.0,7.0,67,0.00,,,0.00,Wunderground v.1.15,2013-07-04 23:15:00,
2013-07-04 18:20:00,85.5,73.7,29.83,East,91,6.0,10.0,68,0.00,,,0.00,Wunderground v.1.15,2013-07-04 23:20:00,
2013-07-04 18:25:00,85.5,73.7,29.83,ESE,118,6.0,10.0,68,0.00,,,0.00,Wunderground v.1.15,2013-07-04 23:25:00,
2013-07-04 18:30:00,85.2,73.9,29.83,ENE,72,6.0,7.0,69,0.00,,,0.00,Wunderground v.1.15,2013-07-04 23:30:00,
2013-07-04 18:35:00,85.0,74.1,29.83,East,84,7.0,7.0,70,0.00,,,0.00,Wunderground v.1.15,2013-07-04 23:35:00,
2013-07-04 18:40:00,85.2,73.9,29.83,ESE,103,6.0,8.0,69,0.00,,,0.00,Wunderground v.1.15,2013-07-04 23:40:00,
2013-07-04 18:45:00,85.2,73.9,29.83,East,89,5.0,8.0,69,0.00,,,0.00,Wunderground v.1.15,2013-07-04 23:45:00,
2013-07-04 18:50:00,85.5,73.3,29.83,NE,55,5.0,7.0,67,0.00,,,0.00,Wunderground v.1.15,2013-07-04 23:50:00,
2013-07-04 18:55:00,85.1,73.8,29.83,East,100,5.0,7.0,69,0.00,,,0.00,Wunderground v.1.15,2013-07-04 23:55:00,
2013-07-04 19:00:00,85.1,73.8,29.83,SE,136,6.0,6.0,69,0.00,,,0.00,Wunderground v.1.15,2013-07-05 00:00:00,
2013-07-04 19:10:00,84.8,73.9,29.83,ESE,121,5.0,7.0,70,0.00,,,0.00,Wunderground v.1.15,2013-07-05 00:10:00,
2013-07-04 19:15:00,84.6,74.2,29.83,ESE,120,5.0,7.0,71,0.00,,,0.00,Wunderground v.1.15,2013-07-05 00:15:00,
2013-07-04 19:20:00,84.6,73.7,29.83,SSE,168,5.0,5.0,70,0.00,,,0.00,Wunderground v.1.15,2013-07-05 00:20:00,
2013-07-04 19:25:00,84.4,73.5,29.83,SSE,152,6.0,6.0,70,0.00,,,0.00,Wunderground v.1.15,2013-07-05 00:25:00,
2013-07-04 19:30:00,84.3,73.4,29.83,ESE,117,5.0,9.0,70,0.00,,,0.00,Wunderground v.1.15,2013-07-05 00:30:00,
2013-07-04 19:35:00,84.1,73.3,29.83,East,91,5.0,9.0,70,0.00,,,0.00,Wunderground v.1.15,2013-07-05 00:35:00,
2013-07-04 19:40:00,83.9,73.5,29.83,East,92,6.0,6.0,71,0.00,,,0.00,Wunderground v.1.15,2013-07-05 00:40:00,
2013-07-04 19:45:00,83.8,73.8,29.83,East,91,6.0,7.0,72,0.00,,,0.00,Wunderground v.1.15,2013-07-05 00:45:00,
2013-07-04 19:50:00,83.6,73.6,29.83,SE,124,5.0,6.0,72,0.00,,,0.00,Wunderground v.1.15,2013-07-05 00:50:00,
2013-07-04 19:55:00,83.4,73.8,29.83,SE,124,5.0,6.0,73,0.00,,,0.00,Wunderground v.1.15,2013-07-05 00:55:00,
2013-07-04 20:00:00,83.3,73.7,29.83,ESE,111,5.0,5.0,73,0.00,,,0.00,Wunderground v.1.15,2013-07-05 01:00:00,
2013-07-04 20:10:00,83.1,73.9,29.83,SE,129,4.0,8.0,74,0.00,,,0.00,Wunderground v.1.15,2013-07-05 01:10:00,
2013-07-04 20:15:00,82.9,73.8,29.83,ESE,118,4.0,8.0,74,0.00,,,0.00,Wunderground v.1.15,2013-07-05 01:15:00,
2013-07-04 20:20:00,82.7,74.0,29.84,ESE,110,4.0,4.0,75,0.00,,,0.00,Wunderground v.1.15,2013-07-05 01:20:00,
2013-07-04 20:25:00,82.5,73.8,29.84,SE,125,4.0,4.0,75,0.00,,,0.00,Wunderground v.1.15,2013-07-05 01:25:00,
2013-07-04 20:30:00,82.3,73.6,29.84,SE,131,4.0,4.0,75,0.00,,,0.00,Wunderground v.1.15,2013-07-05 01:30:00,
2013-07-04 20:35:00,82.2,73.5,29.84,SSW,204,4.0,4.0,75,0.00,,,0.00,Wunderground v.1.15,2013-07-05 01:35:00,
2013-07-04 20:45:00,82.1,73.0,29.84,SE,142,4.0,5.0,74,0.00,,,0.00,Wunderground v.1.15,2013-07-05 01:45:00,
2013-07-04 20:50:00,82.1,73.0,29.84,ESE,102,5.0,5.0,74,0.00,,,0.00,Wunderground v.1.15,2013-07-05 01:50:00,
2013-07-04 20:55:00,82.0,72.9,29.85,East,89,5.0,6.0,74,0.00,,,0.00,Wunderground v.1.15,2013-07-05 01:55:00,
2013-07-04 21:00:00,82.0,72.9,29.85,ESE,105,4.0,4.0,74,0.00,,,0.00,Wunderground v.1.15,2013-07-05 02:00:00,
2013-07-04 21:10:00,81.9,73.6,29.85,SE,127,3.0,3.0,76,0.00,,,0.00,Wunderground v.1.15,2013-07-05 02:10:00,
2013-07-04 21:15:00,81.8,73.5,29.85,SSE,153,4.0,4.0,76,0.00,,,0.00,Wunderground v.1.15,2013-07-05 02:15:00,
2013-07-04 21:20:00,81.8,73.5,29.85,SE,127,3.0,6.0,76,0.00,,,0.00,Wunderground v.1.15,2013-07-05 02:20:00,
2013-07-04 21:25:00,81.7,73.4,29.85,SSE,162,3.0,6.0,76,0.00,,,0.00,Wunderground v.1.15,2013-07-05 02:25:00,
2013-07-04 21:30:00,81.6,73.3,29.86,South,172,4.0,4.0,76,0.00,,,0.00,Wunderground v.1.15,2013-07-05 02:30:00,
2013-07-04 21:35:00,81.6,73.3,29.86,SSE,147,3.0,5.0,76,0.00,,,0.00,Wunderground v.1.15,2013-07-05 02:35:00,
2013-07-04 21:40:00,81.5,73.2,29.86,ESE,111,3.0,3.0,76,0.00,,,0.00,Wunderground v.1.15,2013-07-05 02:40:00,
2013-07-04 21:50:00,81.6,73.7,29.86,East,98,3.0,3.0,77,0.00,,,0.00,Wunderground v.1.15,2013-07-05 02:50:00,
2013-07-04 21:55:00,81.6,73.7,29.87,SSE,162,3.0,3.0,77,0.00,,,0.00,Wunderground v.1.15,2013-07-05 02:55:00,
2013-07-04 22:00:00,81.6,73.7,29.87,East,94,3.0,3.0,77,0.00,,,0.00,Wunderground v.1.15,2013-07-05 03:00:00,
2013-07-04 22:10:00,81.6,73.7,29.86,SSE,162,3.0,3.0,77,0.00,,,0.00,Wunderground v.1.15,2013-07-05 03:10:00,
2013-07-04 22:20:00,81.5,73.6,29.87,East,81,3.0,7.0,77,0.00,,,0.00,Wunderground v.1.15,2013-07-05 03:20:00,
2013-07-04 22:25:00,81.5,73.6,29.87,SE,134,2.0,7.0,77,0.00,,,0.00,Wunderground v.1.15,2013-07-05 03:25:00,
2013-07-04 22:30:00,81.5,74.0,29.88,ESE,118,2.0,2.0,78,0.00,,,0.00,Wunderground v.1.15,2013-07-05 03:30:00,
2013-07-04 22:35:00,81.4,74.3,29.88,SSE,149,2.0,4.0,79,0.00,,,0.00,Wunderground v.1.15,2013-07-05 03:35:00,
2013-07-04 22:40:00,81.4,74.3,29.88,SE,131,2.0,2.0,79,0.00,,,0.00,Wunderground v.1.15,2013-07-05 03:40:00,
2013-07-04 22:45:00,81.4,74.3,29.88,SE,139,2.0,5.0,79,0.00,,,0.00,Wunderground v.1.15,2013-07-05 03:45:00,
2013-07-04 22:55:00,81.2,74.1,29.88,SSE,158,2.0,3.0,79,0.00,,,0.00,Wunderground v.1.15,2013-07-05 03:55:00,
2013-07-04 23:00:00,81.2,74.1,29.88,East,92,3.0,3.0,79,0.00,,,0.00,Wunderground v.1.15,2013-07-05 04:00:00,
2013-07-04 23:05:00,81.2,74.4,29.88,SE,136,2.0,3.0,80,0.00,,,0.00,Wunderground v.1.15,2013-07-05 04:05:00,
2013-07-04 23:10:00,81.1,74.3,29.88,SE,131,2.0,2.0,80,0.00,,,0.00,Wunderground v.1.15,2013-07-05 04:10:00,
2013-07-04 23:15:00,81.0,74.2,29.88,East,96,2.0,2.0,80,0.00,,,0.00,Wunderground v.1.15,2013-07-05 04:15:00,
2013-07-04 23:25:00,80.9,74.1,29.88,WSW,243,2.0,4.0,80,0.00,,,0.00,Wunderground v.1.15,2013-07-05 04:25:00,
2013-07-04 23:30:00,80.8,74.4,29.88,East,84,2.0,2.0,81,0.00,,,0.00,Wunderground v.1.15,2013-07-05 04:30:00,
2013-07-04 23:35:00,80.7,74.3,29.88,SE,136,1.0,2.0,81,0.00,,,0.00,Wunderground v.1.15,2013-07-05 04:35:00,
2013-07-04 23:40:00,80.5,74.1,29.88,ESE,102,0.0,0.0,81,0.00,,,0.00,Wunderground v.1.15,2013-07-05 04:40:00,
2013-07-04 23:45:00,80.3,74.3,29.89,SE,129,1.0,1.0,82,0.00,,,0.00,Wunderground v.1.15,2013-07-05 04:45:00,
2013-07-04 23:50:00,80.1,74.1,29.89,ESE,122,0.0,2.0,82,0.00,,,0.00,Wunderground v.1.15,2013-07-05 04:50:00,